Time,TemperatureF,DewpointF,PressureIn,WindDirection,WindDirectionDegrees,WindSpeedMPH,WindSpeedGustMPH,Humidity,HourlyPrecipIn,Conditions,Clouds,dailyrainin,SolarRadiationWatts/m^2,SoftwareType,DateUTC
2013-05-14 00:23:00,51.0,26.0,-100.00,South,172,8.0,16.0,38,0.00,,,0.00,1.000000,,2013-05-14 04:23:00,
2013-05-14 00:32:00,51.0,26.0,-100.00,South,172,8.0,16.0,38,0.00,,,0.00,1.000000,,2013-05-14 04:32:00,
2013-05-14 00:43:00,51.0,26.0,-100.00,South,172,8.0,16.0,38,0.00,,,0.00,1.000000,,2013-05-14 04:43:00,
2013-05-14 00:52:00,51.0,26.0,-100.00,South,172,8.0,16.0,38,0.00,,,0.00,1.000000,,2013-05-14 04:52:00,
2013-05-14 01:22:00,49.0,27.0,-100.00,South,169,6.0,16.0,43,0.00,,,0.00,1.000000,,2013-05-14 05:22:00,
2013-05-14 01:32:00,49.0,27.0,-100.00,South,169,6.0,16.0,43,0.00,,,0.00,1.000000,,2013-05-14 05:32:00,
2013-05-14 01:42:00,49.0,27.0,-100.00,South,169,6.0,16.0,43,0.00,,,0.00,1.000000,,2013-05-14 05:42:00,
2013-05-14 01:52:00,49.0,27.0,-100.00,South,169,6.0,16.0,43,0.00,,,0.00,1.000000,,2013-05-14 05:52:00,
2013-05-14 02:22:00,47.0,31.0,-100.00,SSE,168,8.0,18.0,54,0.00,,,-99.99,1.000000,,2013-05-14 06:22:00,
2013-05-14 02:32:00,47.0,31.0,-100.00,SSE,168,8.0,18.0,54,0.00,,,-99.99,1.000000,,2013-05-14 06:32:00,
2013-05-14 02:42:00,47.0,31.0,-100.00,SSE,168,8.0,18.0,54,0.00,,,-99.99,1.000000,,2013-05-14 06:42:00,
2013-05-14 02:51:00,47.0,31.0,-100.00,SSE,168,8.0,18.0,54,0.00,,,-99.99,1.000000,,2013-05-14 06:51:00,
2013-05-14 03:21:00,46.0,32.0,-100.00,South,181,5.0,17.0,57,0.00,,,0.00,1.000000,,2013-05-14 07:21:00,
2013-05-14 03:32:00,46.0,32.0,-100.00,South,181,5.0,17.0,57,0.00,,,0.00,1.000000,,2013-05-14 07:32:00,
2013-05-14 03:42:00,46.0,32.0,-100.00,South,181,5.0,17.0,57,0.00,,,0.00,1.000000,,2013-05-14 07:42:00,
2013-05-14 03:52:00,46.0,32.0,-100.00,South,181,5.0,17.0,57,0.00,,,0.00,1.000000,,2013-05-14 07:52:00,
2013-05-14 04:21:00,44.0,32.0,-100.00,SE,144,3.0,10.0,63,0.00,,,0.00,1.000000,,2013-05-14 08:21:00,
2013-05-14 04:32:00,44.0,32.0,-100.00,SE,144,3.0,10.0,63,0.00,,,0.00,1.000000,,2013-05-14 08:32:00,
2013-05-14 04:42:00,44.0,32.0,-100.00,SE,144,3.0,10.0,63,0.00,,,0.00,1.000000,,2013-05-14 08:42:00,
2013-05-14 04:52:00,44.0,32.0,-100.00,SE,144,3.0,10.0,63,0.00,,,0.00,1.000000,,2013-05-14 08:52:00,
2013-05-14 05:22:00,42.0,31.0,-100.00,SSE,162,4.0,10.0,66,0.00,,,0.00,1.000000,,2013-05-14 09:22:00,
2013-05-14 05:32:00,42.0,31.0,-100.00,SSE,162,4.0,10.0,66,0.00,,,0.00,1.000000,,2013-05-14 09:32:00,
2013-05-14 05:44:00,42.0,31.0,-100.00,SSE,162,4.0,10.0,66,0.00,,,0.00,1.000000,,2013-05-14 09:44:00,
2013-05-14 05:54:00,42.0,31.0,-100.00,SSE,162,4.0,10.0,66,0.00,,,0.00,1.000000,,2013-05-14 09:54:00,
2013-05-14 06:25:00,41.0,31.0,-100.00,SSE,168,5.0,10.0,68,0.00,,,0.00,1.000000,,2013-05-14 10:25:00,
2013-05-14 06:33:00,41.0,31.0,-100.00,SSE,168,5.0,10.0,68,0.00,,,0.00,1.000000,,2013-05-14 10:33:00,
2013-05-14 06:42:00,41.0,31.0,-100.00,SSE,168,5.0,10.0,68,0.00,,,0.00,1.000000,,2013-05-14 10:42:00,
2013-05-14 06:52:00,41.0,31.0,-100.00,SSE,168,5.0,10.0,68,0.00,,,0.00,1.000000,,2013-05-14 10:52:00,
2013-05-14 07:22:00,40.0,31.0,-100.00,SSE,159,5.0,11.0,69,0.00,,,0.00,7.000000,,2013-05-14 11:22:00,
2013-05-14 07:32:00,40.0,31.0,-100.00,SSE,159,5.0,11.0,69,0.00,,,0.00,7.000000,,2013-05-14 11:32:00,
2013-05-14 07:43:00,40.0,31.0,-100.00,SSE,159,5.0,11.0,69,0.00,,,0.00,7.000000,,2013-05-14 11:43:00,
2013-05-14 07:52:00,40.0,31.0,-100.00,SSE,159,5.0,11.0,69,0.00,,,0.00,7.000000,,2013-05-14 11:52:00,
2013-05-14 08:21:00,42.0,33.0,-100.00,South,176,6.0,10.0,70,0.00,,,0.00,48.000000,,2013-05-14 12:21:00,
2013-05-14 08:32:00,42.0,33.0,-100.00,South,176,6.0,10.0,70,0.00,,,0.00,48.000000,,2013-05-14 12:32:00,
2013-05-14 08:42:00,42.0,33.0,-100.00,South,176,6.0,10.0,70,0.00,,,0.00,48.000000,,2013-05-14 12:42:00,
2013-05-14 08:52:00,42.0,33.0,-100.00,South,176,6.0,10.0,70,0.00,,,0.00,48.000000,,2013-05-14 12:52:00,
2013-05-14 09:22:00,48.0,36.0,-100.00,SSE,162,5.0,9.0,62,0.00,,,0.00,222.000000,,2013-05-14 13:22:00,
2013-05-14 09:32:00,48.0,36.0,-100.00,SSE,162,5.0,9.0,62,0.00,,,0.00,222.000000,,2013-05-14 13:32:00,
2013-05-14 09:41:00,48.0,36.0,-100.00,SSE,162,5.0,9.0,62,0.00,,,0.00,222.000000,,2013-05-14 13:41:00,
2013-05-14 09:52:00,48.0,36.0,-100.00,SSE,162,5.0,9.0,62,0.00,,,0.00,222.000000,,2013-05-14 13:52:00,
2013-05-14 10:22:00,54.0,36.0,-100.00,South,179,5.0,10.0,51,0.00,,,0.00,452.000000,,2013-05-14 14:22:00,
2013-05-14 10:32:00,54.0,36.0,-100.00,South,179,5.0,10.0,51,0.00,,,0.00,452.000000,,2013-05-14 14:32:00,
2013-05-14 10:41:00,54.0,36.0,-100.00,South,179,5.0,10.0,51,0.00,,,0.00,452.000000,,2013-05-14 14:41:00,
2013-05-14 10:52:00,54.0,36.0,-100.00,South,179,5.0,10.0,51,0.00,,,0.00,452.000000,,2013-05-14 14:52:00,
2013-05-14 11:22:00,56.0,36.0,-100.00,SSW,197,4.0,7.0,47,0.00,,,0.00,356.000000,,2013-05-14 15:22:00,
2013-05-14 11:33:00,56.0,36.0,-100.00,SSW,197,4.0,7.0,47,0.00,,,0.00,356.000000,,2013-05-14 15:33:00,
2013-05-14 11:43:00,56.0,36.0,-100.00,SSW,197,4.0,7.0,47,0.00,,,0.00,356.000000,,2013-05-14 15:43:00,
2013-05-14 11:53:00,56.0,36.0,-100.00,SSW,197,4.0,7.0,47,0.00,,,0.00,356.000000,,2013-05-14 15:53:00,
2013-05-14 12:23:00,58.0,37.0,-100.00,SSW,196,2.0,5.0,46,0.00,,,0.00,289.000000,,2013-05-14 16:23:00,
2013-05-14 12:33:00,58.0,37.0,-100.00,SSW,196,2.0,5.0,46,0.00,,,0.00,289.000000,,2013-05-14 16:33:00,
2013-05-14 12:43:00,58.0,37.0,-100.00,SSW,196,2.0,5.0,46,0.00,,,0.00,289.000000,,2013-05-14 16:43:00,
2013-05-14 12:54:00,58.0,37.0,-100.00,SSW,196,2.0,5.0,46,0.00,,,0.00,289.000000,,2013-05-14 16:54:00,
2013-05-14 13:24:00,60.0,38.0,-100.00,WNW,283,3.0,7.0,44,0.00,,,0.00,288.000000,,2013-05-14 17:24:00,
2013-05-14 13:33:00,60.0,38.0,-100.00,WNW,283,3.0,7.0,44,0.00,,,0.00,288.000000,,2013-05-14 17:33:00,
2013-05-14 13:43:00,60.0,38.0,-100.00,WNW,283,3.0,7.0,44,0.00,,,0.00,288.000000,,2013-05-14 17:43:00,
2013-05-14 13:52:00,60.0,38.0,-100.00,WNW,283,3.0,7.0,44,0.00,,,0.00,288.000000,,2013-05-14 17:52:00,
2013-05-14 14:22:00,62.0,39.0,-100.00,SSE,160,3.0,6.0,43,0.00,,,0.00,300.000000,,2013-05-14 18:22:00,
2013-05-14 14:32:00,62.0,39.0,-100.00,SSE,160,3.0,6.0,43,0.00,,,0.00,300.000000,,2013-05-14 18:32:00,
2013-05-14 14:42:00,62.0,39.0,-100.00,SSE,160,3.0,6.0,43,0.00,,,0.00,300.000000,,2013-05-14 18:42:00,
2013-05-14 14:52:00,62.0,39.0,-100.00,SSE,160,3.0,6.0,43,0.00,,,0.00,300.000000,,2013-05-14 18:52:00,
2013-05-14 15:22:00,63.0,40.0,-100.00,East,101,4.0,10.0,42,0.00,,,0.00,309.000000,,2013-05-14 19:22:00,
2013-05-14 15:32:00,63.0,40.0,-100.00,East,101,4.0,10.0,42,0.00,,,0.00,309.000000,,2013-05-14 19:32:00,
2013-05-14 15:42:00,63.0,40.0,-100.00,East,101,4.0,10.0,42,0.00,,,0.00,309.000000,,2013-05-14 19:42:00,
2013-05-14 15:52:00,63.0,40.0,-100.00,East,101,4.0,10.0,42,0.00,,,0.00,309.000000,,2013-05-14 19:52:00,
2013-05-14 16:23:00,71.0,43.0,-100.00,SE,130,6.0,12.0,36,0.00,,,0.00,539.000000,,2013-05-14 20:23:00,
2013-05-14 16:33:00,71.0,43.0,-100.00,SE,130,6.0,12.0,36,0.00,,,0.00,539.000000,,2013-05-14 20:33:00,
2013-05-14 17:23:00,73.0,42.0,-100.00,SSE,147,8.0,15.0,33,-99.99,,,0.00,738.000000,,2013-05-14 21:23:00,
2013-05-14 18:24:00,74.0,41.0,-100.00,SE,136,8.0,16.0,31,-99.99,,,0.00,614.000000,,2013-05-14 22:24:00,
2013-05-14 19:21:00,73.0,41.0,-100.00,SSE,151,8.0,17.0,31,0.00,,,0.00,438.000000,,2013-05-14 23:21:00,
2013-05-14 19:32:00,73.0,41.0,-100.00,SSE,151,8.0,17.0,31,0.00,,,0.00,438.000000,,2013-05-14 23:32:00,
2013-05-14 19:44:00,73.0,41.0,-100.00,SSE,151,8.0,17.0,31,0.00,,,0.00,438.000000,,2013-05-14 23:44:00,
2013-05-14 19:52:00,73.0,41.0,-100.00,SSE,151,8.0,17.0,31,0.00,,,0.00,438.000000,,2013-05-14 23:52:00,
2013-05-14 20:21:00,71.0,40.0,-100.00,SSE,152,7.0,16.0,33,0.00,,,0.00,270.000000,,2013-05-15 00:21:00,
2013-05-14 20:32:00,71.0,40.0,-100.00,SSE,152,7.0,16.0,33,0.00,,,0.00,270.000000,,2013-05-15 00:32:00,
2013-05-14 20:42:00,71.0,40.0,-100.00,SSE,152,7.0,16.0,33,0.00,,,0.00,270.000000,,2013-05-15 00:42:00,
2013-05-14 20:51:00,71.0,40.0,-100.00,SSE,152,7.0,16.0,33,0.00,,,0.00,270.000000,,2013-05-15 00:51:00,
2013-05-14 21:22:00,67.0,41.0,-100.00,SSE,159,6.0,17.0,38,0.00,,,0.00,86.000000,,2013-05-15 01:22:00,
2013-05-14 21:32:00,67.0,41.0,-100.00,SSE,159,6.0,17.0,38,0.00,,,0.00,86.000000,,2013-05-15 01:32:00,
2013-05-14 21:42:00,67.0,41.0,-100.00,SSE,159,6.0,17.0,38,0.00,,,0.00,86.000000,,2013-05-15 01:42:00,
2013-05-14 21:52:00,67.0,41.0,-100.00,SSE,159,6.0,17.0,38,0.00,,,0.00,86.000000,,2013-05-15 01:52:00,
2013-05-14 22:21:00,66.0,43.0,-100.00,South,182,6.0,12.0,43,0.00,,,-99.99,5.000000,,2013-05-15 02:21:00,
2013-05-14 22:32:00,66.0,43.0,-100.00,South,182,6.0,12.0,43,0.00,,,-99.99,5.000000,,2013-05-15 02:32:00,
2013-05-14 22:42:00,66.0,43.0,-100.00,South,182,6.0,12.0,43,0.00,,,-99.99,5.000000,,2013-05-15 02:42:00,
2013-05-14 22:52:00,66.0,43.0,-100.00,South,182,6.0,12.0,43,0.00,,,-99.99,5.000000,,2013-05-15 02:52:00,
2013-05-14 23:22:00,63.0,42.0,-100.00,SSE,164,4.0,13.0,47,0.00,,,0.00,1.000000,,2013-05-15 03:22:00,
2013-05-14 23:33:00,63.0,42.0,-100.00,SSE,164,4.0,13.0,47,0.00,,,0.00,1.000000,,2013-05-15 03:33:00,
2013-05-14 23:44:00,63.0,42.0,-100.00,SSE,164,4.0,13.0,47,0.00,,,0.00,1.000000,,2013-05-15 03:44:00,
2013-05-14 23:54:00,63.0,42.0,-100.00,SSE,164,4.0,13.0,47,0.00,,,0.00,1.000000,,2013-05-15 03:54:00,